Weather in Krasnoyarikha

Russia / Samara Oblast     54°17′28″N   50°51′26″E
temp.,
°C
wind,
m/s
gust,
m/s
humid.,
%
clouds,
%
prec.,
mm/h
press.,
hPa
HPBL,
m
27 february, sat
sat2701:00−12sse101794100 4.2 1003639
04:00−10sse81493100 8.2 1000444
07:00−8sse6109497 0.3 998261
10:00−5s469699 1.3 997177
13:000wsw5899100 0.9 996448
16:000wsw4799100 1.4 997329
19:000wsw2599100 0.8 997176
22:00−1nw3599100 1.4 998212
28 february, sun
sun2801:00−9nnw6994100 0.3 999276
04:00−11nnw6109499 0.4 1001332
07:00−12nnw61193100 0.1 1003442
10:00−12n6993100 0.3 1006486
13:00−12nnw5892100 0.3 1008514
16:00−13nnw6893100 0.4 1010472
19:00−16nnw5994100 0.1 1012345
22:00−19nnw369796 0.1 1015109
1 march, mon
mon101:00−21nnw339991 0.0 101652
04:00−22nnw349988 0.0 101848
07:00−23nnw339873 0.0 102039
10:00−21nnw359771 0.0 1022178
13:00−17nnw359357 0.0 1022284
16:00−16nnw239568 0.0 102384
19:00−19nnw339974 0.0 102321
22:00−22w119950 0.0 102320
2 march, tue
tue201:00−22sw23980 0.0 102220
04:00−22ssw44960 0.0 102065
07:00−20s5109733 0.0 1016190
10:00−16s6119567 0.0 1013281
13:00−12s71193100 0.3 1010434
16:00−8ssw81294100 0.7 1006518
19:00−6s71395100 0.9 1003507
22:00−4s61195100 1.8 1001425
3 march, wed
wed301:00−3ssw4897100 0.8 999306
04:00−4sw359896 1.0 999117
07:00−3w489798 0.7 999338
10:00−6nw6119499 1.1 1001482
13:00−6nnw71192100 0.3 1002555
16:00−6nnw61191100 0.3 1004596
19:00−6nnw4109698 0.1 1005309
22:00−5nw5119597 0.4 1007413